AirNav   Bose Proflight Series 2 Wireless Aviation Headset
 
 887 users online  

M93 Houston County Airport
Mc Kinnon, Tennessee, USA

GOING TO MC KINNON?


FAA INFORMATION EFFECTIVE 07 NOVEMBER 2019

Location

FAA Identifier: M93
Lat/Long: 36-19-00.1980N 087-55-00.1040W
36-19.003300N 087-55.001733W
36.3167217,-87.9166956
(estimated)
Elevation: 370 ft. / 113 m (estimated)
Variation: 00E (1985)
Time zone: UTC -6 (UTC -5 during Daylight Saving Time)
Zip code: 37175

Airport Operations

Airport use: Open to the public
Activation date: 10/1962
Control tower: no
ARTCC: MEMPHIS CENTER
FSS: JACKSON FLIGHT SERVICE STATION
NOTAMs facility: MKL (NOTAM-D service available)
Attendance: UNATNDD
Wind indicator: yes
Segmented circle: no

Airport Communications

CTAF: 122.9

Nearby radio navigation aids

VOR radial/distance  VOR name  Freq  Var
CKVr234/30.4CLARKSVILLE VOR/DME110.6001W

 
NDB name  Hdg/Dist  Freq  Var  ID
TRAINER081/24.541000ETIQ - .. --.-
DICKSON297/26.120301WDMZ -.. -- --..
HUNTINGDON065/30.021702WHZD .... --.. -..

Airport Services

Fuel available: 100LL
Parking: tiedowns
Airframe service: NONE
Powerplant service: NONE
Bottled oxygen: NONE
Bulk oxygen: NONE

Runway Information

Runway 8/26

Dimensions: 3000 x 75 ft. / 914 x 23 m
Surface: asphalt, in good condition
Weight bearing capacity: 
Single wheel: 11.0
Double wheel: 24.0
RUNWAY 8  RUNWAY 26
Traffic pattern: leftleft
Markings: basic, in fair conditionbasic, in fair condition
Runway end identifier lights: nono
Obstructions: 52 ft. trees, 1225 ft. from runway, 89 ft. left of centerline, 10:1 slope to clear
RY 08 TREES ALONG ROAD NEAR ROW OF HOUSES VIOLATE 7:1 TRANSITIONAL SFC.
94 ft. trees, 1157 ft. from runway, 188 ft. left of centerline, 11:1 slope to clear
RY 26 TREES ON SOUTH SIDE OF THLD VIOLATE 7:1 TRANSITIONAL SFC.

Airport Ownership and Management from official FAA records

Ownership: Publicly-owned
Owner: HOUSTON COUNTY
COUNTY COURTHOUSE
ERIN, TN 37061
Phone 931-289-3633
Manager: JAMES K. BRIDGES HOUSTON CNTY MAYOR
COUNTY COURTHOUSE, P.O. BOX 366
ERIN, TN 37061
Phone 931-289-3633

Airport Operational Statistics

Aircraft based on the field: 5
Single engine airplanes: 5
    
Aircraft operations: avg 40/week *
71% local general aviation
14% transient general aviation
14% military
* for 12-month period ending 31 May 2017

Additional Remarks

FOR CD CTC MEMPHIS ARTCC AT 901-368-8453.

Instrument Procedures

There are no published instrument procedures at M93.

Some nearby airports with instrument procedures:

0M5 - Humphreys County Airport (15 nm SE)
0M4 - Benton County Airport (21 nm SW)
KPHT - Henry County Airport (23 nm W)
KEOD - Sabre Army Airfield (Fort Campbell) (26 nm NE)
M02 - Dickson Municipal Airport (26 nm SE)
 
Loc | Ops | Rwys | IFR | FBO | Links
Com | Nav | Svcs | Stats | Notes
Area around M93 (Houston County Airport)
 
Road maps at: MapQuest Bing Google
 
Aerial photo
WARNING: Photo may not be current or correct
Aerial photo of M93 (Houston County Airport)
Photo by Eve Cascella
Photo taken 20-Oct-2008
from the east looking west

Do you have a better or more recent aerial photo of Houston County Airport that you would like to share? If so, please send us your photo.

 
Sectional chart

 
Airport distance calculator
Flying to Houston County Airport? Find the distance to fly.

From to M93

Sunrise and sunset
Times for 14-Nov-2019
 Local
(UTC-6)
 Zulu
(UTC)
Morning civil twilight06:0212:02
Sunrise06:2912:29
Sunset16:4322:43
Evening civil twilight17:1123:11

Current date and time
Zulu (UTC)  14-Nov-2019 13:34:24
Local (UTC-6)  14-Nov-2019 07:34:24
 
METAR
KPHT 
23nm W 
141315Z AUTO 19004KT 10SM FEW100 M02/M05 A3025 RMK A01
KEOD 
26nm NE 
141258Z AUTO 00000KT 9SM BKN110 M03/M05 A3026 RMK AO2 SLP257 T10341050
KM02 
26nm SE 
141315Z AUTO 19006KT 10SM FEW100 M00/M04 A3025 RMK A01
KHOP 
29nm NE 
141256Z AUTO 17003KT 10SM FEW100 M02/M05 A3026 RMK AO2 SLP255 T10231055
KCKV 
30nm NE 
141252Z AUTO 13003KT 10SM FEW110 M04/M06 A3027 RMK AO2 SLP256 T10391056
KCEY 
30nm NW 
141315Z AUTO 17004KT 10SM CLR M02/M07 A3025 RMK AO1
KPVE 
42nm S 
141315Z AUTO 00000KT 10SM CLR M04/M05 A3027 RMK A01
KM25 
42nm NW 
141315Z AUTO 19005KT 10SM SCT075 M01/M06 A3026 RMK AO2
TAF
KHOP 
29nm NE 
140800Z 1408/1514 21006KT 9999 FEW140 WS020/23035KT QNH3021INS BECMG 1414/1415 20006KT 9999 BKN075 QNH3023INS BECMG 1504/1505 35006KT 9999 BKN040 QNH3034INS BECMG 1507/1508 35009KT 6000 BR SCT008 OVC015 QNH3035INS TX08/1420Z TNM05/1410Z
KCKV 
30nm NE 
141120Z 1412/1512 20005KT P6SM SKC FM141800 26006KT P6SM SCT250 FM142200 35005KT P6SM BKN250
NOTAMs
Click for the latest NOTAMs
NOTAMs are issued by the DoD/FAA and will open in a separate window not controlled by AirNav.

 

 
 

FBO, Fuel Providers, and Aircraft Ground Support

  
 Business Name 
 
 Contact 
 
 Services / Description 
 
Fuel Prices
 
Comments
  
McKinnon Airport 931-289-3633
[email]
Airport management, Aviation fuel, Hangar leasing / sales

More info about McKinnon Airport
100LL
SS $3.90 
 Updated 06-Nov-2019
 
   1 read write
SS=Self service
Update Fuel Prices
 

Would you like to see your business listed on this page?

 If your business provides an interesting product or service to pilots, flight crews, aircraft, or users of the Houston County Airport, you should consider listing it here.  To start the listing process, click on the button below
 
Add a business
 

Other Pages about Houston County Airport

Update a link
 
Copyright © AirNav, LLC. All rights reserved. Privacy Policy  Contact